2011,06,01,00,05,-2.43,1,-99999,99,-2.22,1,24.28,1,100.5,1,23.32,1,2.03,1,90.7,1,4.19,1,1019.2,1,12.64,1,121.71,1
2011,06,01,00,10,-2.73,1,-99999,99,-2.59,1,24.23,1,100.3,1,23.32,1,1.51,1,89,1,3.81,1,1019.2,1,12.64,1,121.69,1
2011,06,01,00,15,-3.21,1,-99999,99,-3,1,24.13,1,99.9,1,23.33,1,2.03,1,87.7,1,3.81,1,1019.2,1,12.64,1,121.64,1
2011,06,01,00,20,-3.11,1,-99999,99,-3,1,24.1,1,99.8,1,23.35,1,1.87,1,75.9,1,3.24,1,1019.2,1,12.64,1,121.57,1
2011,06,01,00,25,-3.51,1,-99999,99,-3.36,1,24.04,1,99.9,1,23.35,1,1.25,1,76.8,1,3.43,1,1019.2,1,12.64,1,121.48,1
2011,06,01,00,30,-3.53,1,-99999,99,-3.37,1,23.97,1,99.6,1,23.37,1,1.48,1,88.5,1,3.05,1,1019.2,1,12.59,1,121.36,1
2011,06,01,00,35,-3.1,1,-99999,99,-3,1,23.93,1,99.5,1,23.37,1,1.96,1,93.1,1,3.62,1,1019.2,1,12.63,1,121.21,1
2011,06,01,00,40,-3.33,1,-99999,99,-3.16,1,23.88,1,99.6,1,23.35,1,1.44,1,78.6,1,2.67,1,1019.3,1,12.63,1,121.05,1
2011,06,01,00,45,-3.72,1,-99999,99,-3.73,1,23.83,1,99.8,1,23.35,1,0.74,1,62.03,1,1.9,1,1019.3,1,12.63,1,120.86,1
2011,06,01,00,50,-3.99,1,-99999,99,-3.88,1,23.79,1,100.3,1,23.33,1,0.69,1,60.67,1,2.1,1,1019.2,1,12.63,1,120.65,1
2011,06,01,00,55,-3.85,1,-99999,99,-3.85,1,23.7,1,100.7,1,23.32,1,0.97,1,82.3,1,2.1,1,1019.1,1,12.63,1,120.41,1
2011,06,01,01,00,-3.58,1,-99999,99,-3.43,1,23.61,1,101.3,1,23.28,1,1.66,1,88.3,1,3.24,1,1019,1,12.63,1,120.16,1
2011,06,01,01,05,-3.29,1,-99999,99,-3.04,1,23.52,1,101.9,1,23.25,1,1.87,1,100.2,1,3.24,1,1018.9,1,12.63,1,119.88,1
2011,06,01,01,10,-3,1,-99999,99,-2.93,1,23.44,1,102.3,1,23.22,1,2.03,1,94.9,1,4.19,1,1018.8,1,12.63,1,119.58,1
2011,06,01,01,15,-3.11,1,-99999,99,-3,1,23.41,1,102.7,1,23.19,1,1.7,1,95.3,1,2.86,1,1018.7,1,12.63,1,119.25,1
2011,06,01,01,20,-3.12,1,-99999,99,-3,1,23.35,1,103.2,1,23.15,1,1.6,1,102.1,1,3.05,1,1018.6,1,12.63,1,118.91,1
2011,06,01,01,25,-3.48,1,-99999,99,-3.23,1,23.26,1,103.7,1,23.12,1,1.24,1,103.5,1,2.29,1,1018.5,1,12.63,1,118.55,1
2011,06,01,01,30,-3.55,1,-99999,99,-3.42,1,23.19,1,104.2,1,23.08,1,0.91,1,98,1,2.1,1,1018.6,1,12.58,1,118.16,1
2011,06,01,01,35,-3.56,1,-99999,99,-3.32,1,23.12,1,104.6,1,23.04,1,1.12,1,102.8,1,2.67,1,1018.6,1,12.62,1,117.76,1
2011,06,01,01,40,-3.34,1,-99999,99,-3.04,1,23.06,1,104.8,1,23,1,1.62,1,102.5,1,2.67,1,1018.5,1,12.62,1,117.33,1
2011,06,01,01,45,-2.88,1,-99999,99,-2.78,1,23.04,1,105,1,22.95,1,2.19,1,101.1,1,3.43,1,1018.4,1,12.62,1,116.89,1
2011,06,01,01,50,-2.72,1,-99999,99,-2.64,1,23.04,1,105.1,8,22.91,1,1.92,1,102.3,1,3.62,1,1018.3,1,12.62,1,116.43,1
2011,06,01,01,55,-3.04,1,-99999,99,-2.99,1,23.03,1,105.2,8,22.86,1,1.37,1,105.6,1,2.67,1,1018.4,1,12.62,1,115.95,1
2011,06,01,02,00,-3.17,1,-99999,99,-3.01,1,23.05,1,105.3,8,22.82,1,1.05,1,90.7,1,2.48,1,1018.5,1,12.62,1,115.45,1
2011,06,01,02,05,-3.47,1,-99999,99,-3.05,1,23.03,1,105.4,8,22.79,1,1.13,1,89.8,1,2.86,1,1018.6,1,12.62,1,114.93,1
2011,06,01,02,10,-2.58,1,-99999,99,-2.47,1,23.05,1,105.3,8,22.75,1,1.9,1,97.7,1,3.24,1,1018.5,1,12.62,1,114.4,1
2011,06,01,02,15,-2.69,1,-99999,99,-2.46,1,23.1,1,105.2,8,22.72,1,1.37,1,93.5,1,2.86,1,1018.5,1,12.62,1,113.85,1
2011,06,01,02,20,-3.23,1,-99999,99,-3.02,1,23.1,1,105.4,8,22.69,1,0.49,1,95.6,1,1.33,1,1018.6,1,12.62,1,113.28,1
2011,06,01,02,25,-3.3,1,-99999,99,-3.09,1,23.11,1,105.5,8,22.65,1,0.8,1,90.2,1,2.1,1,1018.6,1,12.62,1,112.7,1
2011,06,01,02,30,-3.24,1,-99999,99,-3.01,1,23.09,1,105.7,8,22.62,1,0.65,1,101,1,1.52,1,1018.4,1,12.58,1,112.1,1
2011,06,01,02,35,-3.23,1,-99999,99,-3.02,1,23.05,1,105.9,8,22.59,1,0.45,1,95.7,1,1.52,1,1018.5,1,12.62,1,111.49,1
2011,06,01,02,40,-3.48,1,-99999,99,-3.56,1,23.02,1,106,8,22.56,1,0.06,1,54.13,1,0.57,1,1018.5,1,12.62,1,110.87,1
2011,06,01,02,45,-3.39,1,-99999,99,-3.53,1,22.99,1,106.2,8,22.53,1,0.25,1,92,1,0.95,1,1018.5,1,12.62,1,110.22,1
2011,06,01,02,50,-2.68,1,-99999,99,-3,1,22.98,1,106.4,8,22.5,1,0.04,1,49.93,1,0.57,1,1018.5,1,12.62,1,109.57,1
2011,06,01,02,55,-2.22,1,-99999,99,-2.38,1,22.94,1,106.5,8,22.46,1,0.00,1,54.9,1,0.19,1,1018.5,1,12.62,1,108.9,1
2011,06,01,03,00,-1.39,1,-99999,99,-1.86,1,22.91,1,106.6,8,22.43,1,0.46,1,47.86,1,1.9,1,1018.5,1,12.62,1,108.22,1
2011,06,01,03,05,-1.85,1,-99999,99,-2.02,1,22.89,1,106.9,8,22.4,1,1,1,64.17,1,1.71,1,1018.5,1,12.62,1,107.53,1
2011,06,01,03,10,-2.31,1,-99999,99,-2.24,1,22.82,1,107.1,8,22.38,1,0.58,1,68.23,1,1.71,1,1018.5,1,12.62,1,106.82,1
2011,06,01,03,15,-2.45,1,-99999,99,-2.58,1,22.74,1,107.3,8,22.37,1,0.6,1,59.86,1,2.1,1,1018.6,1,12.61,1,106.1,1
2011,06,01,03,20,-2.24,1,-99999,99,-2.27,1,22.67,1,107.4,8,22.35,1,0.01,1,79.2,1,0.38,1,1018.7,1,12.61,1,105.37,1
2011,06,01,03,25,-1.85,1,-99999,99,-2.04,1,22.64,1,107.5,8,22.33,1,0.43,1,76.3,1,1.33,1,1018.7,1,12.61,1,104.63,1
2011,06,01,03,30,-2.23,1,-99999,99,-2.15,1,22.49,1,107.5,8,22.32,1,0.22,1,344,1,0.76,1,1018.8,1,12.57,1,103.88,1
2011,06,01,03,35,-2.48,1,-99999,99,-2.54,1,22.4,1,107.6,8,22.3,1,0.23,1,12.87,1,0.95,1,1018.8,1,12.61,1,103.12,1
2011,06,01,03,40,-2.55,1,-99999,99,-2.86,1,22.36,1,107.7,8,22.28,1,0.2,1,48.31,1,0.95,1,1018.7,1,12.61,1,102.35,1
2011,06,01,03,45,-2.76,1,-99999,99,-2.98,1,22.32,1,107.8,8,22.26,1,0.17,1,343.5,1,0.76,1,1018.7,1,12.61,1,101.56,1
2011,06,01,03,50,-3.21,1,-99999,99,-3.16,1,22.25,1,108,8,22.23,1,0.07,1,58.86,1,0.57,1,1018.6,1,12.61,1,100.77,1
2011,06,01,03,55,-2.89,1,-99999,99,-3,1,22.23,1,108.1,8,22.2,1,0.16,1,58.76,1,0.76,1,1018.6,1,12.61,1,99.97,1
2011,06,01,04,00,-2.89,1,-99999,99,-2.8,1,22.19,1,108.2,8,22.16,1,0.00,1,58.81,1,0.19,1,1018.5,1,12.61,1,99.16,1
2011,06,01,04,05,-2.27,1,-99999,99,-2.15,1,22.22,1,108.3,8,22.12,1,0,1,0,1,0,1,1018.5,1,12.61,1,98.34,1
2011,06,01,04,10,-2.5,1,-99999,99,-2.57,1,22.21,1,108.4,8,22.07,1,0,1,0,1,0,1,1018.6,1,12.61,1,97.52,1
2011,06,01,04,15,-2.46,1,-99999,99,-2.84,1,22.17,1,108.5,8,22.03,1,0,1,0,1,0,1,1018.5,1,12.61,1,96.68,1
2011,06,01,04,20,-2.22,1,-99999,99,-2.19,1,22.17,1,108.6,8,21.98,1,0.00,1,60.21,1,0.19,1,1018.5,1,12.61,1,95.84,1
2011,06,01,04,25,-2.48,1,-99999,99,-2.64,1,22.11,1,108.6,8,21.94,1,0,1,0,1,0,1,1018.6,1,12.61,1,94.99,1
2011,06,01,04,30,-2.28,1,-99999,99,-2.29,1,21.98,1,108.6,8,21.9,1,0.06,1,193.2,1,0.57,1,1018.7,1,12.57,1,94.13,1
2011,06,01,04,35,-1.79,1,-99999,99,-2.11,1,21.93,1,108.7,8,21.85,1,0.07,1,314.9,1,0.57,1,1018.7,1,12.6,1,93.27,1
2011,06,01,04,40,-1.05,1,-99999,99,-1.3,1,21.91,1,108.7,8,21.81,1,0.6,1,332,1,0.95,1,1018.8,1,12.61,1,92.39,1
2011,06,01,04,45,-0.22,1,-99999,99,-0.62,1,21.88,1,108.8,8,21.77,1,0.27,1,333.4,1,0.76,1,1018.8,1,12.6,1,91.52,1
2011,06,01,04,50,1.6,1,-99999,99,0.87,1,21.96,1,109,8,21.73,1,0.08,1,333.9,1,0.57,1,1018.8,1,12.6,1,90.63,1
2011,06,01,04,55,3.41,1,-99999,99,2.7,1,21.84,1,108.8,8,21.69,1,0.01,1,334.1,1,0.38,1,1018.9,1,12.6,1,89.3,1
2011,06,01,05,00,6.7,1,-99999,99,5.77,1,21.76,1,108.9,8,21.66,1,0.00,1,334.1,1,0.19,1,1018.8,1,12.6,1,88.5,1
2011,06,01,05,05,11.64,1,-99999,99,10.3,1,21.8,1,109,8,21.63,1,0.07,1,334.1,1,0.57,1,1018.9,1,12.6,1,87.67,1
2011,06,01,05,10,15.76,1,-99999,99,15.11,1,21.79,1,109,8,21.61,1,0.55,1,338.9,1,0.95,1,1019,1,12.6,1,86.81,1
2011,06,01,05,15,19.89,1,-99999,99,18.92,1,21.87,1,109.1,8,21.6,1,0.21,1,6.88,1,0.76,1,1019,1,12.6,1,85.93,1
2011,06,01,05,20,25.59,1,-99999,99,23.92,1,21.98,1,109.2,8,21.58,1,0.12,1,17.04,1,0.76,1,1019,1,12.6,1,85.04,1
2011,06,01,05,25,32.19,1,-99999,99,29.6,1,22.04,1,109.2,8,21.58,1,0.16,1,12.82,1,0.57,1,1019,1,12.6,1,84.13,1
2011,06,01,05,30,35.48,1,-99999,99,34.04,1,22.08,1,109.1,8,21.58,1,0.22,1,61.11,1,0.76,1,1018.9,1,12.56,1,83.22,1
2011,06,01,05,35,54.11,1,-99999,99,44.34,1,22.14,1,109.2,8,21.59,1,0.09,1,60.87,1,0.76,1,1018.9,1,12.61,1,82.3,1
2011,06,01,05,40,68.56,1,-99999,99,51.32,1,22.24,1,109.2,8,21.6,1,0.09,1,53.51,1,0.57,1,1018.9,1,12.64,1,81.37,1
2011,06,01,05,45,77.79,1,-99999,99,54.96,1,22.35,1,109.2,8,21.63,1,0.29,1,75.5,1,0.95,1,1018.8,1,12.66,1,80.44,1
2011,06,01,05,50,97,2,-99999,99,60.51,2,22.48,1,109.2,8,21.67,1,0.07,1,71.4,1,0.57,1,1018.9,1,12.69,1,79.5,1
2011,06,01,05,55,116.32,2,-99999,99,66.4,2,22.65,1,109.2,8,21.73,1,0.00,1,86.4,1,0.19,1,1018.8,1,12.72,1,78.56,1
2011,06,01,06,00,98.7,2,-99999,99,68.43,2,22.76,1,109.1,8,21.8,1,0.03,1,54.21,1,0.38,1,1018.8,1,12.73,1,77.61,1
2011,06,01,06,05,115.14,2,-99999,99,71.36,2,22.8,1,109,8,21.89,1,0.32,1,73.1,1,1.33,1,1018.8,1,12.75,1,76.66,1
2011,06,01,06,10,151.24,2,-99999,99,77.49,2,22.95,1,108.9,8,21.99,1,0.02,1,52.6,1,0.38,1,1018.8,1,12.8,1,75.7,1
2011,06,01,06,15,172.57,2,-99999,99,84.4,2,23.08,1,108.8,8,22.12,1,0.11,1,64.88,1,0.95,1,1018.8,1,12.86,1,74.74,1
2011,06,01,06,20,175.91,2,-99999,99,92.37,2,23.26,1,108.7,8,22.26,1,0.03,1,353.6,1,0.57,1,1018.9,1,12.95,1,73.78,1
2011,06,01,06,25,116.39,2,-99999,99,88.89,2,23.33,1,108.4,8,22.44,1,0.03,1,348.3,1,0.57,1,1018.9,1,12.95,1,72.81,1
2011,06,01,06,30,160.87,2,-99999,99,100.48,2,23.4,1,108.3,8,22.63,1,0.05,1,49.82,1,0.57,1,1018.9,1,12.93,1,71.84,1
2011,06,01,06,35,249.88,2,-99999,99,112.35,2,23.57,1,108.2,8,22.81,1,0.11,1,20.11,1,0.57,1,1019,1,13.13,1,70.86,1
2011,06,01,06,40,263.44,2,-99999,99,108.47,2,23.79,1,108,8,23.01,1,0.05,1,6.06,1,0.57,1,1019.2,1,13.26,1,69.88,1
2011,06,01,06,45,274.91,2,-99999,99,119.64,2,24.12,1,107.7,8,23.23,1,0.00,1,12.8,1,0.19,1,1019.3,1,13.28,1,68.9,1
2011,06,01,06,50,300.79,2,-99999,99,140.41,2,24.37,1,106.8,8,23.49,1,0.31,1,63.87,1,1.14,1,1019.3,1,13.27,1,67.92,1
2011,06,01,06,55,329.82,2,-99999,99,161.65,2,24.54,1,105.9,8,23.79,1,0.1,1,55.48,1,0.95,1,1019.3,1,13.25,1,66.93,1
2011,06,01,07,00,356.95,2,-99999,99,175.54,2,24.79,1,105.3,8,24.13,1,0.33,1,49.24,1,1.14,1,1019.3,1,13.24,1,65.95,1
2011,06,01,07,05,301.31,2,-99999,99,182.89,2,25.17,1,104.2,1,24.52,1,0.13,1,62.34,1,0.76,1,1019.4,1,13.22,1,64.96,1
2011,06,01,07,10,196.17,2,-99999,99,184.78,2,25.34,1,102.9,1,24.95,1,0.04,1,358.3,1,0.57,1,1019.4,1,13.21,1,63.96,1
2011,06,01,07,15,209.82,2,-99999,99,168.95,2,25.28,1,102.3,1,25.38,1,0.09,1,253.7,1,0.76,1,1019.4,1,13.2,1,62.97,1
2011,06,01,07,20,178.96,2,-99999,99,154.09,2,24.86,1,102.5,1,25.79,1,0.62,1,224.7,1,1.14,1,1019.3,1,13.2,1,61.97,1
2011,06,01,07,25,207.41,2,-99999,99,140.9,2,24.48,1,103.6,1,26.16,1,0.33,1,230.6,1,1.14,1,1019.4,1,13.2,1,60.97,1
2011,06,01,07,30,173.19,2,-99999,99,147.74,2,24.44,1,103.8,1,26.47,1,0.28,1,227.3,1,1.14,1,1019.5,1,13.17,1,59.98,1
2011,06,01,07,35,256.59,2,-99999,99,155.14,2,24.49,1,103.9,1,26.74,1,0.33,1,183.4,1,0.95,1,1019.5,1,13.2,1,58.97,1
2011,06,01,07,40,455.37,2,-99999,99,173.88,2,24.87,1,103.7,1,26.96,1,0.01,1,64.58,1,0.38,1,1019.4,1,13.19,1,57.97,1
2011,06,01,07,45,512.24,2,-99999,99,187.87,2,25.19,1,101.3,1,27.18,1,0.83,1,225.1,1,1.71,1,1019.5,1,13.18,1,56.97,1
2011,06,01,07,50,490.91,2,-99999,99,183.05,2,25.31,1,100.9,1,27.43,1,0.64,1,227.7,1,2.48,1,1019.6,1,13.16,1,55.96,1
2011,06,01,07,55,400.79,2,-99999,99,175.42,2,25.45,1,100.4,1,27.74,1,0.84,1,230.7,1,1.52,1,1019.7,1,13.15,1,54.96,1
2011,06,01,08,00,281.4,2,-99999,99,171.92,2,25.42,1,100.2,1,28.09,1,0.49,1,260.3,1,1.33,1,1019.8,1,13.14,1,53.95,1
2011,06,01,08,05,313.09,2,-99999,99,210.7,2,25.66,1,99.1,1,28.45,1,0.33,1,277.9,1,1.71,1,1020,1,13.14,1,52.95,1
2011,06,01,08,10,217.04,2,-99999,99,196.14,2,25.9,1,98.5,1,28.78,1,0.93,1,319.6,1,2.67,1,1020.1,1,13.13,1,51.94,1
2011,06,01,08,15,552.31,2,-99999,99,214.51,2,26.12,1,97.8,1,29.07,1,0.4,1,339.2,1,1.52,1,1020.2,1,13.13,1,50.93,1
2011,06,01,08,20,510.69,2,-99999,99,243.78,2,26.41,1,96,1,29.32,1,1.32,1,301.3,1,3.62,1,1020.1,1,13.12,1,49.93,1
2011,06,01,08,25,250.94,2,-99999,99,231.12,2,26.25,1,96.8,1,29.58,1,0.88,1,278.3,1,2.48,1,1020.1,1,13.12,1,48.92,1
2011,06,01,08,30,456.96,2,-99999,99,230.05,2,26.2,1,96.8,1,29.84,1,0.6,1,273,1,1.52,1,1020,1,13.1,1,47.91,1
2011,06,01,08,35,663.84,2,-99999,99,222.62,2,26.51,1,96.6,1,30.08,1,0.81,1,314.7,1,2.1,1,1020.2,1,13.11,1,46.91,1
2011,06,01,08,40,693.47,2,-99999,99,230.87,2,26.81,1,95.7,1,30.32,1,0.69,1,313.1,1,1.52,1,1020.2,1,13.1,1,45.9,1
2011,06,01,08,45,701.92,2,-99999,99,225.72,2,27.19,1,94,1,30.61,1,0.44,1,278.6,1,1.71,1,1020.1,1,13.08,1,44.9,1
2011,06,01,08,50,708.21,2,-99999,99,214.07,2,27.16,1,93.7,1,30.94,1,1.11,1,262.4,1,2.67,1,1020.1,1,13.07,1,43.89,1
2011,06,01,08,55,722.75,2,-99999,99,214,2,27.25,1,93.3,1,31.32,1,0.91,1,286.9,1,2.1,1,1020.2,1,13.06,1,42.89,1
2011,06,01,09,00,694.68,2,-99999,99,185.99,2,27.52,1,91.6,1,31.72,1,0.54,1,271.9,1,1.33,1,1020.1,1,13.05,1,41.89,1
2011,06,01,09,05,707.18,2,-99999,99,178.05,2,27.69,1,91.9,1,32.12,1,0.99,1,253.8,1,2.29,1,1020.1,1,13.04,1,40.89,1
2011,06,01,09,10,710.53,2,-99999,99,165.22,2,27.23,1,93,1,32.53,1,0.98,1,260.9,1,2.48,1,1020.1,1,13.03,1,39.89,1
2011,06,01,09,15,717.45,2,-99999,99,165.29,2,27.35,1,92.6,1,32.92,1,1.02,1,330,1,2.48,1,1020.1,1,13.03,1,38.9,1
2011,06,01,09,20,725.95,2,-99999,99,168.47,2,27.86,1,90.4,1,33.28,1,0.94,1,355.3,1,2.1,1,1020.1,1,13.03,1,37.91,1
2011,06,01,09,25,743.75,2,-99999,99,170.09,2,28.47,1,88.6,1,33.61,1,1.36,1,35.28,1,2.48,1,1020.1,1,13.02,1,36.92,1
2011,06,01,09,30,758.47,2,-99999,99,172.51,2,28.64,1,88.1,1,33.93,1,0.58,1,20.36,1,1.71,1,1020,1,13,1,35.93,1
2011,06,01,09,35,771.58,2,-99999,99,174.13,2,28.95,1,87.1,1,34.22,1,1.05,1,34.75,1,3.24,1,1020,1,13.01,1,34.95,1
2011,06,01,09,40,783.83,2,-99999,99,175.52,2,28.68,1,88.1,1,34.52,1,1.26,1,48.53,1,2.86,1,1020,1,13,1,33.98,1
2011,06,01,09,45,794.64,2,-99999,99,176.33,2,28.87,1,87.2,1,34.8,1,0.34,1,96.5,1,1.33,1,1019.9,1,13,1,33.01,1
2011,06,01,09,50,805.92,2,-99999,99,183.36,2,29.35,1,85.8,1,35.08,1,1.02,1,64.06,1,2.48,1,1019.9,1,12.99,1,32.04,1
2011,06,01,09,55,808.04,2,-99999,99,186.9,2,29.42,1,84.7,1,35.36,1,0.96,1,14.33,1,2.48,1,1019.9,1,12.99,1,31.08,1
2011,06,01,10,00,819.98,2,-99999,99,185.58,2,28.97,1,84.2,1,35.63,1,1.12,1,241.5,1,2.48,1,1019.8,1,12.98,1,30.13,1
2011,06,01,10,05,826.82,2,-99999,99,185.22,2,28.67,1,86,1,35.89,1,0.08,1,32.41,1,0.76,1,1019.8,1,12.98,1,29.18,1
2011,06,01,10,10,828.99,2,-99999,99,187.06,2,29.34,1,84.3,1,36.14,1,1.23,1,50.89,1,2.48,1,1019.8,1,12.97,1,28.25,1
2011,06,01,10,15,844.46,2,-99999,99,188.79,2,30,1,81.9,1,36.39,1,0.72,1,13.37,1,1.33,1,1019.8,1,12.97,1,27.32,1
2011,06,01,10,20,859.24,2,-99999,99,189.64,2,30.39,1,78.8,1,36.63,1,1.24,1,66.32,1,2.67,1,1019.7,1,12.96,1,26.4,1
2011,06,01,10,25,853.07,2,-99999,99,188.99,2,30.36,1,78.3,1,36.87,1,1.49,1,46.65,1,2.86,1,1019.7,1,12.96,1,25.5,1
2011,06,01,10,30,874.71,2,-99999,99,191.09,2,30.05,1,77.8,1,37.1,1,1.05,1,63.88,1,2.67,1,1019.7,1,12.94,1,24.61,1
2011,06,01,10,35,879.82,2,-99999,99,195.73,2,30.09,1,75.1,1,37.31,1,1.18,1,6.41,1,2.48,1,1019.7,1,12.95,1,23.74,1
2011,06,01,10,40,887.56,2,-99999,99,199.17,2,30.18,1,75.6,1,37.5,1,1.46,1,31.47,1,2.48,1,1019.8,1,12.95,1,22.88,1
2011,06,01,10,45,898.16,2,-99999,99,198.3,2,30.24,1,75.8,1,37.68,1,1.72,1,53.12,1,3.43,1,1019.8,1,12.95,1,22.04,1
2011,06,01,10,50,900.31,2,-99999,99,201.14,2,30.39,1,75.1,1,37.82,1,2.03,1,54.22,1,3.43,1,1019.8,1,12.95,1,21.23,1
2011,06,01,10,55,908.33,2,-99999,99,204.2,2,30.82,1,73.3,1,37.95,1,0.91,1,339.3,1,2.1,1,1019.7,1,12.95,1,20.44,1
2011,06,01,11,00,903.36,2,-99999,99,206.21,2,30.74,1,72.5,1,38.05,1,0.87,1,325.8,1,2.86,1,1019.7,1,12.95,1,19.67,1
2011,06,01,11,05,914.73,2,-99999,99,208.67,2,30.65,1,76.4,1,38.16,1,1.29,1,55.09,1,3.05,1,1019.6,1,12.94,1,18.94,1
2011,06,01,11,10,924.96,2,-99999,99,208.69,2,30.55,1,76.1,1,38.27,1,2.18,1,28.99,1,4,1,1019.6,1,12.94,1,18.24,1
2011,06,01,11,15,927.49,2,-99999,99,207.74,2,30.39,1,76.6,1,38.35,1,1.49,1,15.98,1,2.86,1,1019.5,1,12.94,1,17.58,1
2011,06,01,11,20,933.12,2,-99999,99,205.45,2,30.6,1,76.6,1,38.41,1,1.28,1,65.98,1,2.29,1,1019.4,1,12.94,1,16.96,1
2011,06,01,11,25,937.71,2,-99999,99,208.46,2,30.98,1,76.2,1,38.47,1,1.69,1,54.94,1,3.62,1,1019.4,1,12.94,1,16.4,1
2011,06,01,11,30,939.5,2,-99999,99,209.13,2,30.94,1,75.5,1,38.51,1,0.98,1,337.3,1,2.29,1,1019.3,1,12.93,1,15.88,1
2011,06,01,11,35,946.97,2,-99999,99,209.48,2,30.75,1,74.6,1,38.56,1,2.45,1,329.6,1,4,1,1019.3,1,12.94,1,15.43,1
2011,06,01,11,40,951.73,2,-99999,99,208.81,2,30.64,1,75.1,1,38.59,1,1.45,1,10.83,1,3.05,1,1019.2,1,12.94,1,15.04,1
2011,06,01,11,45,961.27,2,-99999,99,213.53,2,31.35,1,72.8,1,38.63,1,1.55,1,7.23,1,3.24,1,1019.2,1,12.95,1,14.72,1
2011,06,01,11,50,967.24,2,-99999,99,211.83,2,31.43,1,71.4,1,38.63,1,1.75,1,37.86,1,2.86,1,1019.2,1,12.95,1,14.47,1
2011,06,01,11,55,966.56,2,-99999,99,212.99,2,31.51,1,70.9,1,38.66,1,1.48,1,54.94,1,2.86,1,1019.1,1,12.95,1,14.3,1
2011,06,01,12,00,971.68,2,-99999,99,209.36,2,30.97,1,72.7,1,38.67,1,0.77,1,98.3,1,2.48,1,1019,1,12.95,1,14.22,1
2011,06,01,12,05,959.65,2,-99999,99,211.98,2,31.38,1,71.4,1,38.7,1,1.21,1,46.43,1,2.29,1,1018.9,1,12.95,1,14.21,1
2011,06,01,12,10,955.14,2,-99999,99,209.88,2,31.74,1,70.4,1,38.71,1,1.2,1,50.7,1,2.67,1,1018.8,1,12.95,1,14.29,1
2011,06,01,12,15,957.48,2,-99999,99,201.69,2,31.97,1,69.97,1,38.74,1,1.47,1,124,1,3.05,1,1018.6,1,12.95,1,14.45,1
2011,06,01,12,20,966.69,2,-99999,99,195.82,2,31.91,1,70.4,1,38.77,1,0.86,1,80.1,1,2.29,1,1018.5,1,12.95,1,14.69,1
2011,06,01,12,25,956.94,2,-99999,99,191.88,2,32.39,1,69.3,1,38.79,1,1.68,1,101.5,1,3.81,1,1018.4,1,12.95,1,15,1
2011,06,01,12,30,952.39,2,-99999,99,189.33,2,31.9,1,70.7,1,38.82,1,2.37,1,59.39,1,4.95,1,1018.3,1,12.94,1,15.39,1
2011,06,01,12,35,943.78,2,-99999,99,191.33,2,31.95,1,70.6,1,38.83,1,2.32,1,89,1,4.76,1,1018.2,1,12.95,1,15.84,1
2011,06,01,12,40,942.94,2,-99999,99,187.78,2,31.59,1,71.7,1,38.83,1,1.48,1,119.4,1,3.62,1,1018.1,1,12.96,1,16.35,1
2011,06,01,12,45,947.19,2,-99999,99,190.38,2,32.23,1,70,1,38.8,1,1.52,1,84.5,1,3.24,1,1018.1,1,12.96,1,16.91,1
2011,06,01,12,50,935.84,2,-99999,99,198.47,2,32.5,1,69.3,1,38.77,1,1.6,1,94.9,1,4.19,1,1018.1,1,12.96,1,17.52,1
2011,06,01,12,55,946.94,2,-99999,99,206.35,2,32.03,1,71.2,1,38.74,1,1.96,1,112.6,1,3.43,1,1018,1,12.96,1,18.18,1
2011,06,01,13,00,779.06,2,-99999,99,232.06,2,31.8,1,72.4,1,38.7,1,1.01,1,108.5,1,2.29,1,1018,1,12.97,1,18.87,1
2011,06,01,13,05,649.76,2,-99999,99,270.92,2,31.83,1,76.4,1,38.69,1,2.8,1,117.8,1,4.57,1,1018,1,12.97,1,19.6,1
2011,06,01,13,10,887.29,2,-99999,99,248.24,2,31.24,1,80.2,1,38.66,1,3.63,1,132,1,5.52,1,1017.9,1,12.97,1,20.36,1
2011,06,01,13,15,938.69,2,-99999,99,224.95,2,31.18,1,80.1,1,38.61,1,3.28,1,140.7,1,7.05,1,1017.8,1,12.97,1,21.15,1
2011,06,01,13,20,933.25,2,-99999,99,233.24,2,30.88,1,81.4,1,38.52,1,4.5,1,122.4,1,7.24,1,1017.7,1,12.97,1,21.97,1
2011,06,01,13,25,920.88,2,-99999,99,218.77,2,30.6,1,82,1,38.41,1,3.7,1,135.7,1,6.28,1,1017.7,1,12.98,1,22.8,1
2011,06,01,13,30,907.08,2,-99999,99,204.89,2,30.39,1,82.4,1,38.27,1,3.32,1,144.8,1,5.71,1,1017.7,1,12.97,1,23.66,1
2011,06,01,13,35,895.58,2,-99999,99,200.79,2,30.4,1,82,1,38.1,1,3.83,1,135.7,1,5.14,1,1017.7,1,12.98,1,24.53,1
2011,06,01,13,40,882.42,2,-99999,99,197.93,2,30.28,1,82.1,1,37.93,1,1.65,1,155.6,1,4.38,1,1017.8,1,12.98,1,25.42,1
2011,06,01,13,45,878.02,2,-99999,99,198.03,2,30.68,1,81.1,1,37.75,1,3.35,1,159.1,1,5.71,1,1017.8,1,12.98,1,26.32,1
2011,06,01,13,50,874.35,2,-99999,99,191.94,2,30.6,1,81.1,1,37.61,1,2.35,1,164.6,1,3.81,1,1017.8,1,12.98,1,27.23,1
2011,06,01,13,55,868.16,2,-99999,99,186.94,2,30.86,1,80,1,37.49,1,3.82,1,110.4,1,5.9,1,1017.7,1,12.98,1,28.16,1
2011,06,01,14,00,854.63,2,-99999,99,185.08,2,30.61,1,81.1,1,37.38,1,3.61,1,103.8,1,5.52,1,1017.6,1,12.98,1,29.09,1
2011,06,01,14,05,846.57,2,-99999,99,182.63,2,30.67,1,81,1,37.3,1,2.8,1,150.8,1,4.76,1,1017.6,1,12.98,1,30.04,1
2011,06,01,14,10,841.06,2,-99999,99,180.71,2,30.76,1,80.4,1,37.22,1,2.87,1,164.4,1,5.14,1,1017.6,1,12.99,1,30.99,1
2011,06,01,14,15,832.45,2,-99999,99,177.18,2,30.9,1,79.8,1,37.15,1,2.78,1,188.5,1,4.38,1,1017.5,1,12.99,1,31.95,1
2011,06,01,14,20,824.9,2,-99999,99,175.1,2,31.13,1,79,1,37.09,1,3.09,1,153.5,1,5.52,1,1017.4,1,12.98,1,32.91,1
2011,06,01,14,25,808.12,2,-99999,99,174.3,2,30.5,1,81,1,37.07,1,3.96,1,146,1,6.47,1,1017.3,1,12.98,1,33.88,1
2011,06,01,14,30,798.94,2,-99999,99,172.44,2,30.6,1,80.6,1,37.04,1,3.11,1,163.8,1,6.28,1,1017.3,1,12.97,1,34.86,1
2011,06,01,14,35,781.69,2,-99999,99,171.97,2,31.1,1,79.2,1,37.04,1,3.04,1,159,1,6.09,1,1017.2,1,12.99,1,35.84,1
2011,06,01,14,40,771.67,2,-99999,99,170.4,2,30.78,1,79.6,1,37.01,1,3.33,1,154.2,1,4.76,1,1017.3,1,12.99,1,36.82,1
2011,06,01,14,45,764.47,2,-99999,99,167.78,2,30.67,1,80,1,37,1,2.74,1,130.5,1,4.57,1,1017.2,1,12.99,1,37.81,1
2011,06,01,14,50,746.83,2,-99999,99,169.36,2,30.59,1,80.2,1,37,1,2.74,1,115.7,1,4.76,1,1017.2,1,12.99,1,38.8,1
2011,06,01,14,55,728.13,2,-99999,99,170.53,2,30.55,1,79.8,1,37,1,3.18,1,145.9,1,5.33,1,1017.1,1,12.99,1,39.8,1
2011,06,01,15,00,714.64,2,-99999,99,169.37,2,31.01,1,77.8,1,37,1,2.5,1,163.2,1,3.43,1,1017.1,1,12.99,1,40.79,1
2011,06,01,15,05,702.73,2,-99999,99,167.37,2,30.91,1,77.5,1,37.01,1,2.84,1,148.6,1,5.33,1,1017,1,12.99,1,41.79,1
2011,06,01,15,10,687.44,2,-99999,99,165.1,2,30.85,1,76.9,1,37.04,1,2.33,1,130.1,1,4.38,1,1017,1,12.99,1,42.79,1
2011,06,01,15,15,673.9,2,-99999,99,164.17,2,30.97,1,75.3,1,37.04,1,2.84,1,116.6,1,5.33,1,1016.9,1,12.99,1,43.79,1
2011,06,01,15,20,660.15,2,-99999,99,162.82,2,30.81,1,74.6,1,37.06,1,3.25,1,152.5,1,4.95,1,1016.8,1,12.99,1,44.8,1
2011,06,01,15,25,640.49,2,-99999,99,162.5,2,31.06,1,73.1,1,37.09,1,2.27,1,145.4,1,4,1,1016.8,1,12.99,1,45.8,1
2011,06,01,15,30,625.85,2,-99999,99,163.33,2,31.39,1,69.92,1,37.12,1,3.07,1,140.5,1,5.71,1,1016.7,1,12.98,1,46.8,1
2011,06,01,15,35,610.46,2,-99999,99,163.42,2,30.97,1,68.34,1,37.16,1,4.29,1,133.7,1,5.71,1,1016.6,1,12.99,1,47.81,1
2011,06,01,15,40,599.13,2,-99999,99,164.51,2,30.86,1,68.13,1,37.16,1,2.95,1,156,1,5.14,1,1016.6,1,13,1,48.82,1
2011,06,01,15,45,581.88,2,-99999,99,163,2,31.29,1,67.23,1,37.18,1,3.49,1,157.1,1,6.47,1,1016.5,1,13,1,49.82,1
2011,06,01,15,50,564.83,2,-99999,99,160.92,2,30.84,1,67.55,1,37.18,1,3.5,1,146.8,1,5.14,1,1016.5,1,13,1,50.83,1
2011,06,01,15,55,550.84,2,-99999,99,158.77,2,31.17,1,67.01,1,37.16,1,3.17,1,150.8,1,4.57,1,1016.4,1,13,1,51.84,1
2011,06,01,16,00,528,2,-99999,99,157.1,2,31.25,1,67.84,1,37.16,1,3.39,1,157.8,1,5.33,1,1016.4,1,13,1,52.84,1
2011,06,01,16,05,507.94,2,-99999,99,156.38,2,31.21,1,68.52,1,37.16,1,3.53,1,146,1,5.52,1,1016.4,1,13,1,53.85,1
2011,06,01,16,10,492.48,2,-99999,99,154.07,2,30.86,1,68.13,1,37.14,1,3.89,1,147,1,6.28,1,1016.3,1,13,1,54.85,1
2011,06,01,16,15,478.99,2,-99999,99,151.19,2,30.95,1,66.82,1,37.12,1,3.7,1,138.4,1,6.28,1,1016.2,1,13,1,55.86,1
2011,06,01,16,20,461.59,2,-99999,99,147.79,2,30.83,1,65.64,1,37.08,1,3.81,1,142.3,1,5.33,1,1016.1,1,13.01,1,56.86,1
2011,06,01,16,25,446.45,2,-99999,99,146.34,2,30.9,1,64.24,1,37.04,1,3.8,1,151.4,1,6.28,1,1016.1,1,13.01,1,57.87,1
2011,06,01,16,30,428.69,2,-99999,99,143.35,2,31.1,1,62.54,1,36.98,1,3.64,1,147.7,1,5.52,1,1016.1,1,12.99,1,58.87,1
2011,06,01,16,35,412.2,2,-99999,99,141.43,2,31.06,1,61.65,1,36.91,1,3.47,1,140.9,1,5.9,1,1016.1,1,13.01,1,59.87,1
2011,06,01,16,40,388.28,2,-99999,99,140,2,30.93,1,61.42,1,36.85,1,3.5,1,121,1,5.14,1,1016.1,1,13.01,1,60.87,1
2011,06,01,16,45,373.23,2,-99999,99,136.8,2,31.21,1,60.48,1,36.77,1,2.39,1,153.3,1,3.81,1,1016.1,1,13.02,1,61.86,1
2011,06,01,16,50,354.46,2,-99999,99,132.57,2,31.49,1,58.05,1,36.71,1,3.13,1,145.1,1,5.52,1,1016.1,1,13.01,1,62.86,1
2011,06,01,16,55,335.98,2,-99999,99,130.86,2,31.03,1,58.76,1,36.66,1,3.85,1,130.2,1,5.52,1,1016,1,13.02,1,63.85,1
2011,06,01,17,00,318.62,2,-99999,99,128.23,2,30.94,1,60.14,1,36.6,1,3.35,1,127.8,1,5.33,1,1016,1,13.01,1,64.85,1
2011,06,01,17,05,302.63,2,-99999,99,126.89,2,30.98,1,61.09,1,36.53,1,3.05,1,142.5,1,4.76,1,1016.1,1,13.01,1,65.83,1
2011,06,01,17,10,288.05,2,-99999,99,122.68,2,30.96,1,63.15,1,36.46,1,2.82,1,133.9,1,4.57,1,1016.1,1,13.01,1,66.82,1
2011,06,01,17,15,272.73,2,-99999,99,118.54,2,30.79,1,67.13,1,36.37,1,3.38,1,141.4,1,5.71,1,1016.2,1,13,1,67.81,1
2011,06,01,17,20,256.39,2,-99999,99,113.85,2,30.49,1,70.2,1,36.28,1,3,1,157.5,1,4.57,1,1016.1,1,12.99,1,68.79,1
2011,06,01,17,25,240.43,2,-99999,99,109.74,2,30.37,1,74,1,36.18,1,2.84,1,148.1,1,4.57,1,1016.1,1,12.98,1,69.77,1
2011,06,01,17,30,223.22,2,-99999,99,106.04,2,30.16,1,77.3,1,36.07,1,2.63,1,151.1,1,4.38,1,1016,1,12.93,1,70.75,1
2011,06,01,17,35,208.58,2,-99999,99,102.27,2,29.92,1,78.5,1,35.95,1,3.37,1,142.3,1,4.76,1,1016,1,12.95,1,71.72,1
2011,06,01,17,40,189.92,2,-99999,99,97.37,2,29.8,1,79.8,1,35.82,1,3.38,1,128.8,1,5.9,1,1015.8,1,12.94,1,72.69,1